Time,TemperatureF,DewpointF,PressureIn,WindDirection,WindDirectionDegrees,WindSpeedMPH,WindSpeedGustMPH,Humidity,HourlyPrecipIn,Conditions,Clouds,dailyrainin,SoftwareType,DateUTC
2013-06-23 00:00:00,68.3,65.0,30.00,SSE,159,0.0,2.0,88,0.00,,,0.15,weatherlink.com 1.10,2013-06-23 05:00:00,
2013-06-23 00:15:00,68.1,65.0,29.98,SSE,161,0.0,1.0,89,0.00,,,0.00,weatherlink.com 1.10,2013-06-23 05:15:00,
2013-06-23 00:30:00,67.9,65.0,29.99,NE,45,0.0,1.0,90,0.00,,,0.00,weatherlink.com 1.10,2013-06-23 05:30:00,
2013-06-23 00:46:00,67.4,65.0,29.98,NE,45,0.0,0.0,90,0.00,,,0.00,weatherlink.com 1.10,2013-06-23 05:46:00,
2013-06-23 01:01:00,66.9,64.0,29.98,NE,45,0.0,0.0,91,0.00,,,0.00,weatherlink.com 1.10,2013-06-23 06:01:00,
2013-06-23 01:16:00,66.5,64.0,29.98,NE,45,0.0,0.0,92,0.00,,,0.00,weatherlink.com 1.10,2013-06-23 06:16:00,
2013-06-23 01:31:00,66.3,64.0,29.99,NE,45,0.0,1.0,93,0.00,,,0.00,weatherlink.com 1.10,2013-06-23 06:31:00,
2013-06-23 01:46:00,66.1,64.0,29.99,NE,45,0.0,0.0,94,0.00,,,0.00,weatherlink.com 1.10,2013-06-23 06:46:00,
2013-06-23 02:01:00,65.8,64.0,29.99,NE,45,0.0,0.0,94,0.00,,,0.00,weatherlink.com 1.10,2013-06-23 07:01:00,
2013-06-23 02:16:00,65.6,64.0,29.98,NE,45,0.0,0.0,95,0.01,,,0.01,weatherlink.com 1.10,2013-06-23 07:16:00,
2013-06-23 02:31:00,65.5,64.0,29.98,NE,45,0.0,0.0,95,0.01,,,0.01,weatherlink.com 1.10,2013-06-23 07:31:00,
2013-06-23 02:46:00,65.2,64.0,29.96,NE,45,0.0,0.0,95,0.01,,,0.01,weatherlink.com 1.10,2013-06-23 07:46:00,
2013-06-23 03:01:00,64.8,63.0,29.95,NE,45,0.0,0.0,95,0.01,,,0.01,weatherlink.com 1.10,2013-06-23 08:01:00,
2013-06-23 03:16:00,64.5,63.0,29.94,NE,45,0.0,0.0,95,0.00,,,0.01,weatherlink.com 1.10,2013-06-23 08:16:00,
2013-06-23 03:31:00,64.2,63.0,29.94,NE,45,0.0,0.0,96,0.00,,,0.01,weatherlink.com 1.10,2013-06-23 08:31:00,
2013-06-23 03:46:00,64.0,63.0,29.95,NE,45,0.0,0.0,96,0.00,,,0.01,weatherlink.com 1.10,2013-06-23 08:46:00,
2013-06-23 04:01:00,63.7,63.0,29.95,NE,45,0.0,0.0,96,0.00,,,0.01,weatherlink.com 1.10,2013-06-23 09:01:00,
2013-06-23 04:16:00,63.5,62.0,29.94,NE,45,0.0,0.0,96,0.00,,,0.01,weatherlink.com 1.10,2013-06-23 09:16:00,
2013-06-23 04:31:00,63.2,62.0,29.94,NE,45,0.0,0.0,96,0.00,,,0.01,weatherlink.com 1.10,2013-06-23 09:31:00,
2013-06-23 04:46:00,62.9,62.0,29.95,NE,45,0.0,0.0,96,0.00,,,0.01,weatherlink.com 1.10,2013-06-23 09:46:00,
2013-06-23 05:01:00,63.3,63.0,29.95,NE,45,0.0,0.0,97,0.00,,,0.01,weatherlink.com 1.10,2013-06-23 10:01:00,
2013-06-23 05:16:00,63.0,62.0,29.96,NE,45,0.0,0.0,97,0.00,,,0.01,weatherlink.com 1.10,2013-06-23 10:16:00,
2013-06-23 05:31:00,63.0,62.0,29.97,NE,45,0.0,1.0,97,0.00,,,0.01,weatherlink.com 1.10,2013-06-23 10:31:00,
2013-06-23 05:46:00,63.0,62.0,29.95,NE,45,0.0,0.0,97,0.00,,,0.01,weatherlink.com 1.10,2013-06-23 10:46:00,
2013-06-23 06:01:00,63.2,62.0,29.94,NE,45,0.0,0.0,97,0.00,,,0.01,weatherlink.com 1.10,2013-06-23 11:01:00,
2013-06-23 06:16:00,63.6,63.0,29.94,NE,45,0.0,0.0,97,0.00,,,0.01,weatherlink.com 1.10,2013-06-23 11:16:00,
2013-06-23 06:31:00,64.0,63.0,29.92,NE,45,0.0,1.0,97,0.00,,,0.01,weatherlink.com 1.10,2013-06-23 11:31:00,
2013-06-23 06:46:00,64.7,63.0,29.91,NE,45,0.0,1.0,95,0.00,,,0.01,weatherlink.com 1.10,2013-06-23 11:46:00,
2013-06-23 07:01:00,65.6,64.0,29.90,NE,45,0.0,1.0,94,0.00,,,0.01,weatherlink.com 1.10,2013-06-23 12:01:00,
2013-06-23 07:16:00,66.7,65.0,29.90,NE,45,0.0,1.0,93,0.00,,,0.01,weatherlink.com 1.10,2013-06-23 12:16:00,
2013-06-23 07:31:00,67.5,65.0,29.90,NE,45,0.0,1.0,91,0.00,,,0.01,weatherlink.com 1.10,2013-06-23 12:31:00,
2013-06-23 07:46:00,68.7,66.0,29.91,NE,48,0.0,1.0,90,0.00,,,0.01,weatherlink.com 1.10,2013-06-23 12:46:00,
2013-06-23 08:01:00,69.6,67.0,29.91,North,351,0.0,2.0,90,0.00,,,0.01,weatherlink.com 1.10,2013-06-23 13:01:00,
2013-06-23 08:16:00,70.7,67.0,29.92,West,260,2.0,4.0,88,0.00,,,0.01,weatherlink.com 1.10,2013-06-23 13:16:00,
2013-06-23 08:31:00,71.8,68.0,29.92,WSW,257,0.0,2.0,87,0.00,,,0.01,weatherlink.com 1.10,2013-06-23 13:31:00,
2013-06-23 08:46:00,73.1,68.0,29.93,SSW,196,0.0,3.0,85,0.00,,,0.01,weatherlink.com 1.10,2013-06-23 13:46:00,
2013-06-23 09:17:00,75.3,69.0,29.94,SSW,196,0.0,3.0,81,0.01,,,0.02,weatherlink.com 1.10,2013-06-23 14:17:00,
2013-06-23 09:32:00,76.9,70.0,29.95,SSW,196,0.0,2.0,80,0.01,,,0.02,weatherlink.com 1.10,2013-06-23 14:32:00,
2013-06-23 09:47:00,77.6,71.0,29.96,South,184,0.0,4.0,79,0.01,,,0.02,weatherlink.com 1.10,2013-06-23 14:47:00,
2013-06-23 10:17:00,78.0,71.0,29.96,South,186,1.0,3.0,78,0.00,,,0.02,weatherlink.com 1.10,2013-06-23 15:17:00,
2013-06-23 10:32:00,78.0,71.0,29.96,South,189,0.0,3.0,79,0.00,,,0.02,weatherlink.com 1.10,2013-06-23 15:32:00,
2013-06-23 10:47:00,78.3,71.0,29.95,SSW,193,0.0,3.0,78,0.00,,,0.02,weatherlink.com 1.10,2013-06-23 15:47:00,
2013-06-23 11:02:00,78.9,71.0,29.95,SSW,198,0.0,2.0,76,0.00,,,0.02,weatherlink.com 1.10,2013-06-23 16:02:00,
2013-06-23 11:17:00,79.1,71.0,29.95,SSW,198,0.0,3.0,76,0.00,,,0.02,weatherlink.com 1.10,2013-06-23 16:17:00,
2013-06-23 11:32:00,79.5,73.0,29.94,SSW,198,0.0,2.0,80,0.00,,,0.02,weatherlink.com 1.10,2013-06-23 16:32:00,
2013-06-23 11:47:00,80.3,72.0,29.94,SSE,167,1.0,4.0,75,0.00,,,0.02,weatherlink.com 1.10,2013-06-23 16:47:00,
2013-06-23 12:02:00,80.7,72.0,29.94,SSW,200,0.0,3.0,75,0.00,,,0.02,weatherlink.com 1.10,2013-06-23 17:02:00,
2013-06-23 12:17:00,81.3,73.0,29.94,SSW,200,1.0,3.0,75,0.00,,,0.02,weatherlink.com 1.10,2013-06-23 17:17:00,
2013-06-23 12:32:00,82.4,73.0,29.94,SSW,199,1.0,3.0,72,0.00,,,0.02,weatherlink.com 1.10,2013-06-23 17:32:00,
2013-06-23 12:47:00,83.1,73.0,29.93,SSW,200,1.0,3.0,71,0.00,,,0.02,weatherlink.com 1.10,2013-06-23 17:47:00,
2013-06-23 13:02:00,83.7,73.0,29.93,SSW,194,0.0,3.0,70,0.00,,,0.02,weatherlink.com 1.10,2013-06-23 18:02:00,
2013-06-23 13:17:00,83.4,73.0,29.92,SSE,157,0.0,4.0,71,0.00,,,0.02,weatherlink.com 1.10,2013-06-23 18:17:00,
2013-06-23 13:32:00,84.2,74.0,29.91,SSW,192,0.0,3.0,71,0.00,,,0.02,weatherlink.com 1.10,2013-06-23 18:32:00,
2013-06-23 13:47:00,85.0,74.0,29.91,South,190,0.0,3.0,69,0.00,,,0.02,weatherlink.com 1.10,2013-06-23 18:47:00,
2013-06-23 14:02:00,85.1,74.0,29.91,South,190,1.0,3.0,70,0.00,,,0.02,weatherlink.com 1.10,2013-06-23 19:02:00,
2013-06-23 14:17:00,85.8,75.0,29.90,South,188,1.0,3.0,69,0.00,,,0.02,weatherlink.com 1.10,2013-06-23 19:17:00,
2013-06-23 14:32:00,85.6,74.0,29.90,NNW,344,1.0,2.0,69,0.00,,,0.02,weatherlink.com 1.10,2013-06-23 19:32:00,
2013-06-23 14:47:00,85.8,72.0,29.89,SSW,199,1.0,3.0,63,0.00,,,0.02,weatherlink.com 1.10,2013-06-23 19:47:00,
2013-06-23 15:02:00,86.8,73.0,29.88,SSW,206,1.0,3.0,63,0.00,,,0.02,weatherlink.com 1.10,2013-06-23 20:02:00,
2013-06-23 15:17:00,86.8,73.0,29.88,South,187,1.0,3.0,63,0.00,,,0.02,weatherlink.com 1.10,2013-06-23 20:17:00,
2013-06-23 15:32:00,86.4,73.0,29.87,South,182,1.0,3.0,65,0.00,,,0.02,weatherlink.com 1.10,2013-06-23 20:32:00,
2013-06-23 15:47:00,86.3,73.0,29.87,SSW,192,0.0,4.0,65,0.00,,,0.02,weatherlink.com 1.10,2013-06-23 20:47:00,
2013-06-23 16:02:00,85.7,74.0,29.86,SSW,196,2.0,3.0,67,0.00,,,0.02,weatherlink.com 1.10,2013-06-23 21:02:00,
2013-06-23 16:18:00,85.5,73.0,29.85,SSW,198,2.0,3.0,66,0.00,,,0.02,weatherlink.com 1.10,2013-06-23 21:18:00,
2013-06-23 16:33:00,85.5,73.0,29.86,SSW,198,1.0,1.0,67,0.00,,,0.02,weatherlink.com 1.10,2013-06-23 21:33:00,
2013-06-23 16:48:00,86.1,73.0,29.86,SSW,200,1.0,3.0,66,0.00,,,0.02,weatherlink.com 1.10,2013-06-23 21:48:00,
2013-06-23 17:03:00,85.4,73.0,29.86,SSW,210,0.0,3.0,66,0.00,,,0.02,weatherlink.com 1.10,2013-06-23 22:03:00,
2013-06-23 17:18:00,83.9,72.0,29.86,SSW,210,0.0,2.0,68,0.00,,,0.02,weatherlink.com 1.10,2013-06-23 22:18:00,
2013-06-23 17:33:00,83.2,72.0,29.85,SSW,209,0.0,2.0,70,0.00,,,0.02,weatherlink.com 1.10,2013-06-23 22:33:00,
2013-06-23 17:48:00,82.5,72.0,29.85,SSW,209,0.0,1.0,71,0.00,,,0.02,weatherlink.com 1.10,2013-06-23 22:48:00,
2013-06-23 18:03:00,81.5,72.0,29.86,SSW,209,0.0,1.0,73,0.00,,,0.02,weatherlink.com 1.10,2013-06-23 23:03:00,
2013-06-23 18:18:00,80.9,72.0,29.88,SSW,209,0.0,1.0,75,0.00,,,0.02,weatherlink.com 1.10,2013-06-23 23:18:00,
2013-06-23 18:33:00,80.5,73.0,29.89,SSW,209,0.0,1.0,77,0.00,,,0.02,weatherlink.com 1.10,2013-06-23 23:33:00,
2013-06-23 18:48:00,79.7,69.0,29.91,SSW,202,0.0,2.0,70,0.00,,,0.02,weatherlink.com 1.10,2013-06-23 23:48:00,
2013-06-23 19:03:00,78.4,67.0,29.91,SSW,202,0.0,1.0,68,0.01,,,0.03,weatherlink.com 1.10,2013-06-24 00:03:00,
2013-06-23 19:18:00,77.3,66.0,29.91,SSW,202,0.0,1.0,69,0.01,,,0.03,weatherlink.com 1.10,2013-06-24 00:18:00,
2013-06-23 19:33:00,76.5,67.0,29.91,SSW,202,0.0,1.0,72,0.01,,,0.03,weatherlink.com 1.10,2013-06-24 00:33:00,
2013-06-23 19:48:00,75.9,67.0,29.90,SE,134,0.0,1.0,74,0.01,,,0.03,weatherlink.com 1.10,2013-06-24 00:48:00,
2013-06-23 20:03:00,75.7,67.0,29.90,SE,134,0.0,1.0,74,0.00,,,0.03,weatherlink.com 1.10,2013-06-24 01:03:00,
2013-06-23 20:18:00,75.3,67.0,29.90,SE,134,0.0,0.0,75,0.00,,,0.03,weatherlink.com 1.10,2013-06-24 01:18:00,
2013-06-23 20:33:00,75.0,67.0,29.91,SE,135,0.0,1.0,75,0.00,,,0.03,weatherlink.com 1.10,2013-06-24 01:33:00,
2013-06-23 20:48:00,74.8,66.0,29.91,SSE,149,0.0,1.0,75,0.00,,,0.03,weatherlink.com 1.10,2013-06-24 01:48:00,
2013-06-23 21:03:00,74.5,66.0,29.91,SSE,163,0.0,1.0,75,0.00,,,0.03,weatherlink.com 1.10,2013-06-24 02:03:00,
2013-06-23 21:18:00,74.0,66.0,29.92,SSE,163,0.0,1.0,77,0.00,,,0.03,weatherlink.com 1.10,2013-06-24 02:18:00,
2013-06-23 21:33:00,73.5,66.0,29.92,SSE,163,0.0,1.0,78,0.00,,,0.03,weatherlink.com 1.10,2013-06-24 02:33:00,
2013-06-23 21:48:00,72.9,66.0,29.93,SSE,163,0.0,2.0,80,0.00,,,0.03,weatherlink.com 1.10,2013-06-24 02:48:00,
2013-06-23 22:03:00,72.6,67.0,29.93,South,184,0.0,2.0,81,0.00,,,0.03,weatherlink.com 1.10,2013-06-24 03:03:00,
2013-06-23 22:18:00,72.5,66.0,29.93,South,184,1.0,1.0,81,0.00,,,0.03,weatherlink.com 1.10,2013-06-24 03:18:00,
2013-06-23 22:33:00,72.3,67.0,29.93,South,184,0.0,1.0,82,0.00,,,0.03,weatherlink.com 1.10,2013-06-24 03:33:00,
2013-06-23 22:48:00,71.8,66.0,29.93,South,184,0.0,1.0,83,0.00,,,0.03,weatherlink.com 1.10,2013-06-24 03:48:00,
2013-06-23 23:03:00,71.7,67.0,29.93,South,180,0.0,2.0,84,0.00,,,0.03,weatherlink.com 1.10,2013-06-24 04:03:00,
2013-06-23 23:18:00,71.2,67.0,29.94,South,180,0.0,1.0,86,0.00,,,0.03,weatherlink.com 1.10,2013-06-24 04:18:00,
2013-06-23 23:33:00,70.7,67.0,29.94,South,180,0.0,1.0,87,0.00,,,0.03,weatherlink.com 1.10,2013-06-24 04:33:00,
2013-06-23 23:48:00,70.4,67.0,29.94,South,180,0.0,0.0,88,0.00,,,0.03,weatherlink.com 1.10,2013-06-24 04:48:00,